This demonstration page uses our WeatherBlox Daily Observations layout. Learn more.

Left ArrowRight Arrow

39.92423, -83.80882

Hourly Observations for June 22, 2022

Temp ( °F °C ) Dew Point ( °F °C ) Humidity (%) Winds ( mph kmh ) Pressure ( in mb ) Visibility ( mi km ) Precip ( " mm )
12:56 am 00:56 Clear 75 23.9 63 17.2 66 66 WSW 10 17 30.06 1018 10 16 0.00 0.00
1:56 am 01:56 Clear 74 23.3 63 17.2 69 69 WSW 8 13 30.06 1018 10 16 0.00 0.00
2:56 am 02:56 Clear 71 21.7 64 17.8 79 79 SW 3 6 30.05 1018 10 16 0.00 0.00
3:56 am 03:56 Clear 71 21.7 63 17.2 76 76 WSW 5 7 30.05 1018 10 16 0.00 0.00
4:56 am 04:56 Clear 71 21.7 64 17.8 79 79 SSW 5 7 30.04 1017 10 16 0.00 0.00
5:56 am 05:56 Clear 71 21.7 65 18.3 81 81 SW 6 9 30.04 1017 10 16 0.00 0.00
6:56 am 06:56 Sunny 71 21.7 67 19.4 87 87 SW 5 7 30.04 1017 10 16 0.00 0.00
7:56 am 07:56 Sunny 77 25 67 19.4 71 71 WSW 6 9 30.03 1017 10 16 0.00 0.00
8:56 am 08:56 Sunny 81 27.2 67 19.4 62 62 W 10 17 30.02 1017 10 16 0.00 0.00
9:56 am 09:56 Sunny 84 28.9 70 21.1 63 63 WNW 12 19 30.02 1017 10 16 0.00 0.00
10:56 am 10:56 Sunny 88 31.1 72 22.2 59 59 WNW 8 13 30.00 1016 10 16 0.00 0.00
11:56 am 11:56 Sunny 90 32.2 73 22.8 58 58 W 12 19 30.00 1016 10 16 0.00 0.00
12:56 pm 12:56 Sunny 92 33.3 73 22.8 54 54 NW 10 17 29.98 1015 10 16 0.00 0.00
1:56 pm 13:56 Mostly Sunny 93 33.9 73 22.8 52 52 NW 14 22 29.97 1015 10 16 0.00 0.00
2:56 pm 14:56 Partly Cloudy 95 35 73 22.8 49 49 W 12 19 29.95 1014 10 16 0.00 0.00
3:42 pm 15:42 Sunny with Nearby Thunderstorms 93 34 72 22 49 49 NW 12 19 29.87 1012 10 16 0.00 0.00
3:56 pm 15:56 Partly Cloudy with Nearby Thunderstorms 93 33.9 71 21.7 49 49 NW 13 20 29.92 1013 10 16 0.00 0.00
4:16 pm 16:16 Sunny 90 32 72 22 55 55 WSW 10 17 29.88 1012 10 16 0.00 0.00
4:56 pm 16:56 Mostly Cloudy 82 27.8 69 20.6 65 65 SW 9 15 29.92 1013 10 16 0.00 0.00
5:56 pm 17:56 Sunny 85 29.4 72 22.2 65 65 SW 12 19 29.90 1013 10 16 0.00 0.00
6:56 pm 18:56 Sunny 82 27.8 73 22.8 74 74 WSW 10 17 29.91 1013 10 16 0.00 0.00
7:56 pm 19:56 Mostly Cloudy 83 28.3 63 17.2 51 51 NW 15 24 29.94 1014 10 16 0.00 0.00
8:14 pm 20:14 Mostly Cloudy 84 29 54 12 35 35 NW 13 20 29.91 1013 10 16 0.00 0.00
8:56 pm 20:56 Partly Cloudy 82 27.8 52 11.1 35 35 NW 9 15 29.94 1014 10 16 0.00 0.00
9:56 pm 21:56 Clear 79 26.1 53 11.7 41 41 NW 9 15 29.94 1014 10 16 0.00 0.00
10:56 pm 22:56 Clear 75 23.9 54 12.2 48 48 NNW 10 17 29.95 1014 10 16 0.00 0.00
11:56 pm 23:56 Clear 72 22.2 56 13.3 57 57 NNW 7 11 29.98 1015 10 16 0.00 0.00

Powered by AerisWeather